Regional Weather Roundup
Issued by NWS

Home | Current Version | Previous Version | Graphics & Text | Print | Product List | Glossary On
Versions: 1 2 3 4 5 6 7 8 9 10 11 12 13 14 15 16 17 18 19 20 21 22 23 24 25 26 27 28 29 30 31 32 33 34 35 36 37 38 39 40 41 42 43 44 45 46 47 48 49 50
000
ASUS44 KMEG 220910
RWRTN
TENNESSEE HOURLY STATE WEATHER ROUNDUP
NATIONAL WEATHER SERVICE MEMPHIS TN
300 AM CST MON DEC 22 2014

TNZ002-004-019-021-049-052-054-088>092-221000-
WEST TENNESSEE

CITY           SKY/WX    TMP DP  RH WIND       PRES   REMARKS
MEMPHIS INTL   DRZL/FOG  47  44  90 S8        29.89S VSB 1
NWS MEMPHIS      N/A     46 N/A N/A MISG        N/A
JACKSON        CLOUDY    48  45  87 S8        29.90F
DYERSBURG      CLOUDY    45  30  57 SE8       29.90F
UNION CITY     MOCLDY    41  37  87 SE5       29.89F
PARIS          CLOUDY    39  37  93 SE6       29.92F WCI  35
HUNTINGDON     CLOUDY    38  35  89 E5        29.92F WCI  34
LEXINGTON      CLOUDY    43  39  87 CALM      29.92F
SAVANNAH       CLOUDY    48  46  93 SE5       29.93F
$$

TNZ008-025-027-028-033-062-065-066-221000-
NORTH MIDDLE TENNESSEE

CITY           SKY/WX    TMP DP  RH WIND       PRES   REMARKS
NASHVILLE      CLOUDY    46  43  89 SE5       29.98F
CLARKSVILLE    CLOUDY    42  38  85 SE7       29.94F
SMYRNA         CLOUDY    45  43  93 CALM      29.99F
COOKEVILLE     CLOUDY    46  43  87 CALM      29.99S
CROSSVILLE     CLOUDY    45  38  76 S6        30.01F
$$

TNZ061-075-076-078-094-096-097-221000-
SOUTH MIDDLE TENNESSEE

CITY           SKY/WX    TMP DP  RH WIND       PRES   REMARKS
FAYETTEVILLE   CLOUDY    46  43  87 MISG      29.97S
TULLAHOMA      CLOUDY    46  43  87 SE7       29.98F
WINCHESTER     CLOUDY    46  43  87 SE8       29.98F
MCMINNVILLE    CLOUDY    48  45  87 CALM      29.98F
COLUMBIA       CLOUDY   N/A N/A N/A SE6       29.94S
SHELBYVILLE    CLOUDY    48  46  93 SE7       29.98F
$$

TNZ017-018-042-046-047-221000-
NORTHEAST TENNESSEE

CITY           SKY/WX    TMP DP  RH WIND       PRES   REMARKS
TRI CITIES     CLOUDY    38  35  89 CALM      30.06F
ELIZABETHTON   DRIZZLE   45  37  76 E9        30.05F
$$

TNZ012-013-036-069-073-074-221000-
CENTRAL EAST TENNESSEE

CITY           SKY/WX    TMP DP  RH WIND       PRES   REMARKS
KNOXVILLE      CLOUDY    43  37  79 N7        30.03F
OAK RIDGE      CLOUDY    44  38  79 CALM      30.05F
GATLINBURG     CLOUDY    37  36  93 CALM      30.03S
MORRISTOWN     CLOUDY    43  37  81 E7        30.03F
$$

TNZ083-085-099-221000-
SOUTHEAST TENNESSEE

CITY           SKY/WX    TMP DP  RH WIND       PRES   REMARKS
CHATTANOOGA    CLOUDY    46  40  79 CALM      30.04S
$$

SKY/WX REPORTED AS FAIR MEANS FEW OR NO CLOUDS BELOW
12 THOUSAND FEET.




USA.gov is the U.S. government's official web portal to all federal, state and local government web resources and services.